Year,Month,Day,Hour,Minute,Value (Times are PST for temperature in C)
2017,05,02,00,00,5.90
2017,05,02,00,01,5.90
2017,05,02,00,02,5.90
2017,05,02,00,03,5.90
2017,05,02,00,04,5.90
2017,05,02,00,05,5.90
2017,05,02,00,06,5.90
2017,05,02,00,07,6.00
2017,05,02,00,08,6.10
2017,05,02,00,09,6.10
2017,05,02,00,10,6.10
2017,05,02,00,11,6.10
2017,05,02,00,12,6.10
2017,05,02,00,13,6.10
2017,05,02,00,14,6.10
2017,05,02,00,15,6.10
2017,05,02,00,16,6.10
2017,05,02,00,17,6.00
2017,05,02,00,18,6.00
2017,05,02,00,19,5.90
2017,05,02,00,20,5.90
2017,05,02,00,21,5.90
2017,05,02,00,22,5.90
2017,05,02,00,23,5.90
2017,05,02,00,24,5.90
2017,05,02,00,25,5.90
2017,05,02,00,26,5.90
2017,05,02,00,27,5.90
2017,05,02,00,28,5.90
2017,05,02,00,29,5.90
2017,05,02,00,30,5.90
2017,05,02,00,31,5.90
2017,05,02,00,32,5.90
2017,05,02,00,33,6.00
2017,05,02,00,34,6.00
2017,05,02,00,35,6.00
2017,05,02,00,36,6.00
2017,05,02,00,37,6.00
2017,05,02,00,38,6.00
2017,05,02,00,39,6.00
2017,05,02,00,40,6.00
2017,05,02,00,41,6.00
2017,05,02,00,42,6.00
2017,05,02,00,43,5.90
2017,05,02,00,44,5.90
2017,05,02,00,45,5.90
2017,05,02,00,46,5.90
2017,05,02,00,47,5.90
2017,05,02,00,48,5.90
2017,05,02,00,49,5.90
2017,05,02,00,50,5.90
2017,05,02,00,51,5.90
2017,05,02,00,52,5.80
2017,05,02,00,53,5.80
2017,05,02,00,54,5.80
2017,05,02,00,55,5.80
2017,05,02,00,56,5.80
2017,05,02,00,57,5.80
2017,05,02,00,58,5.80
2017,05,02,00,59,5.80
2017,05,02,01,00,5.80
2017,05,02,01,01,5.80
2017,05,02,01,02,5.80
2017,05,02,01,03,5.80
2017,05,02,01,04,5.80
2017,05,02,01,05,5.80
2017,05,02,01,06,5.80
2017,05,02,01,07,5.70
2017,05,02,01,08,5.70
2017,05,02,01,09,5.70
2017,05,02,01,10,5.70
2017,05,02,01,11,5.70
2017,05,02,01,12,5.70
2017,05,02,01,13,5.70
2017,05,02,01,14,5.70
2017,05,02,01,15,5.70
2017,05,02,01,16,5.70
2017,05,02,01,17,5.70
2017,05,02,01,18,5.70
2017,05,02,01,19,5.70
2017,05,02,01,20,5.70
2017,05,02,01,21,5.70
2017,05,02,01,22,5.80
2017,05,02,01,23,5.80
2017,05,02,01,24,5.90
2017,05,02,01,25,6.00
2017,05,02,01,26,6.10
2017,05,02,01,27,6.20
2017,05,02,01,28,6.20
2017,05,02,01,29,6.20
2017,05,02,01,30,6.30
2017,05,02,01,31,6.30
2017,05,02,01,32,6.30
2017,05,02,01,33,6.30
2017,05,02,01,34,6.20
2017,05,02,01,35,6.10
2017,05,02,01,36,6.10
2017,05,02,01,37,6.10
2017,05,02,01,38,6.10
2017,05,02,01,39,6.00
2017,05,02,01,40,6.00
2017,05,02,01,41,6.00
2017,05,02,01,42,5.90
2017,05,02,01,43,5.90
2017,05,02,01,44,5.90
2017,05,02,01,45,5.90
2017,05,02,01,46,5.80
2017,05,02,01,47,5.80
2017,05,02,01,48,5.80
2017,05,02,01,49,5.80
2017,05,02,01,50,5.80
2017,05,02,01,51,5.80
2017,05,02,01,52,5.70
2017,05,02,01,53,5.80
2017,05,02,01,54,5.80
2017,05,02,01,55,5.90
2017,05,02,01,56,5.90
2017,05,02,01,57,6.00
2017,05,02,01,58,6.00
2017,05,02,01,59,6.10
2017,05,02,02,00,6.20
2017,05,02,02,01,6.20
2017,05,02,02,02,6.20
2017,05,02,02,03,6.30
2017,05,02,02,04,6.30
2017,05,02,02,05,6.30
2017,05,02,02,06,6.30
2017,05,02,02,07,6.30
2017,05,02,02,08,6.30
2017,05,02,02,09,6.30
2017,05,02,02,10,6.30
2017,05,02,02,11,6.30
2017,05,02,02,12,6.30
2017,05,02,02,13,6.20
2017,05,02,02,14,6.20
2017,05,02,02,15,6.20
2017,05,02,02,16,6.20
2017,05,02,02,17,6.20
2017,05,02,02,18,6.10
2017,05,02,02,19,6.10
2017,05,02,02,20,6.10
2017,05,02,02,21,6.00
2017,05,02,02,22,6.00
2017,05,02,02,23,5.90
2017,05,02,02,24,5.90
2017,05,02,02,25,5.90
2017,05,02,02,26,5.90
2017,05,02,02,27,5.80
2017,05,02,02,28,5.80
2017,05,02,02,29,5.80
2017,05,02,02,30,5.80
2017,05,02,02,31,5.70
2017,05,02,02,32,5.80
2017,05,02,02,33,5.80
2017,05,02,02,34,5.80
2017,05,02,02,35,5.80
2017,05,02,02,36,5.80
2017,05,02,02,37,5.80
2017,05,02,02,38,5.80
2017,05,02,02,39,5.80
2017,05,02,02,40,5.80
2017,05,02,02,41,5.80
2017,05,02,02,42,5.70
2017,05,02,02,43,5.70
2017,05,02,02,44,5.70
2017,05,02,02,45,5.70
2017,05,02,02,46,5.70
2017,05,02,02,47,5.70
2017,05,02,02,48,5.70
2017,05,02,02,49,5.70
2017,05,02,02,50,5.70
2017,05,02,02,51,5.70
2017,05,02,02,52,5.70
2017,05,02,02,53,5.70
2017,05,02,02,54,5.70
2017,05,02,02,55,5.70
2017,05,02,02,56,5.70
2017,05,02,02,57,5.70
2017,05,02,02,58,5.70
2017,05,02,02,59,5.70
2017,05,02,03,00,5.70
2017,05,02,03,01,5.80
2017,05,02,03,02,5.80
2017,05,02,03,03,5.80
2017,05,02,03,04,5.90
2017,05,02,03,05,5.90
2017,05,02,03,06,5.90
2017,05,02,03,07,6.00
2017,05,02,03,08,6.00
2017,05,02,03,09,6.00
2017,05,02,03,10,6.10
2017,05,02,03,11,6.10
2017,05,02,03,12,6.20
2017,05,02,03,13,6.20
2017,05,02,03,14,6.20
2017,05,02,03,15,6.20
2017,05,02,03,16,6.30
2017,05,02,03,17,6.30
2017,05,02,03,18,6.30
2017,05,02,03,19,6.30
2017,05,02,03,20,6.30
2017,05,02,03,21,6.40
2017,05,02,03,22,6.40
2017,05,02,03,23,6.40
2017,05,02,03,24,6.40
2017,05,02,03,25,6.40
2017,05,02,03,26,6.40
2017,05,02,03,27,6.50
2017,05,02,03,28,6.50
2017,05,02,03,29,6.50
2017,05,02,03,30,6.60
2017,05,02,03,31,6.60
2017,05,02,03,32,6.60
2017,05,02,03,33,6.60
2017,05,02,03,34,6.70
2017,05,02,03,35,6.70
2017,05,02,03,36,6.70
2017,05,02,03,37,6.70
2017,05,02,03,38,6.80
2017,05,02,03,39,6.80
2017,05,02,03,40,6.80
2017,05,02,03,41,6.80
2017,05,02,03,42,6.90
2017,05,02,03,43,6.90
2017,05,02,03,44,6.90
2017,05,02,03,45,6.90
2017,05,02,03,46,6.90
2017,05,02,03,47,6.90
2017,05,02,03,48,7.00
2017,05,02,03,49,7.00
2017,05,02,03,50,7.00
2017,05,02,03,51,7.00
2017,05,02,03,52,7.00
2017,05,02,03,53,7.00
2017,05,02,03,54,7.00
2017,05,02,03,55,7.00
2017,05,02,03,56,7.00
2017,05,02,03,57,7.00
2017,05,02,03,58,7.00
2017,05,02,03,59,7.00
2017,05,02,04,00,7.10
2017,05,02,04,01,7.10
2017,05,02,04,02,7.10
2017,05,02,04,03,7.10
2017,05,02,04,04,7.10
2017,05,02,04,08,7.10
2017,05,02,04,09,7.10
2017,05,02,04,10,7.10
2017,05,02,04,11,7.00
2017,05,02,04,12,7.00
2017,05,02,04,13,7.00
2017,05,02,04,14,7.00
2017,05,02,04,15,7.00
2017,05,02,04,16,7.00
2017,05,02,04,17,7.00
2017,05,02,04,18,7.00
2017,05,02,04,19,7.00
2017,05,02,04,20,7.00
2017,05,02,04,21,6.90
2017,05,02,04,22,6.90
2017,05,02,04,23,6.90
2017,05,02,04,24,6.90
2017,05,02,04,25,6.90
2017,05,02,04,26,6.90
2017,05,02,04,27,6.90
2017,05,02,04,28,6.90
2017,05,02,04,29,6.90
2017,05,02,04,30,6.90
2017,05,02,04,31,6.90
2017,05,02,04,32,6.90
2017,05,02,04,33,6.90
2017,05,02,04,34,6.90
2017,05,02,04,35,6.90
2017,05,02,04,36,6.90
2017,05,02,04,37,6.90
2017,05,02,04,38,6.90
2017,05,02,04,39,6.90
2017,05,02,04,40,6.90
2017,05,02,04,41,6.90
2017,05,02,04,42,6.90
2017,05,02,04,43,6.90
2017,05,02,04,44,7.00
2017,05,02,04,45,7.00
2017,05,02,04,46,7.00
2017,05,02,04,47,7.00
2017,05,02,04,48,7.00
2017,05,02,04,49,7.00
2017,05,02,04,50,7.00
2017,05,02,04,51,7.00
2017,05,02,04,52,7.00
2017,05,02,04,53,7.00
2017,05,02,04,54,7.00
2017,05,02,04,55,7.00
2017,05,02,04,56,7.00
2017,05,02,04,57,7.10
2017,05,02,04,58,7.10
2017,05,02,04,59,7.10
2017,05,02,05,00,7.10
2017,05,02,05,01,7.10
2017,05,02,05,02,7.10
2017,05,02,05,03,7.10
2017,05,02,05,04,7.10
2017,05,02,05,05,7.10
2017,05,02,05,06,7.10
2017,05,02,05,07,7.10
2017,05,02,05,08,7.10
2017,05,02,05,09,7.10
2017,05,02,05,10,7.10
2017,05,02,05,11,7.10
2017,05,02,05,12,7.10
2017,05,02,05,13,7.10
2017,05,02,05,14,7.10
2017,05,02,05,15,7.10
2017,05,02,05,16,7.10
2017,05,02,05,17,7.10
2017,05,02,05,18,7.10
2017,05,02,05,19,7.20
2017,05,02,05,20,7.20
2017,05,02,05,21,7.20
2017,05,02,05,22,7.20
2017,05,02,05,23,7.20
2017,05,02,05,24,7.20
2017,05,02,05,25,7.20
2017,05,02,05,26,7.20
2017,05,02,05,27,7.20
2017,05,02,05,28,7.20
2017,05,02,05,29,7.20
2017,05,02,05,30,7.20
2017,05,02,05,31,7.20
2017,05,02,05,32,7.20
2017,05,02,05,33,7.20
2017,05,02,05,34,7.30
2017,05,02,05,35,7.30
2017,05,02,05,36,7.30
2017,05,02,05,37,7.30
2017,05,02,05,38,7.30
2017,05,02,05,39,7.30
2017,05,02,05,40,7.30
2017,05,02,05,41,7.30
2017,05,02,05,42,7.30
2017,05,02,05,43,7.30
2017,05,02,05,44,7.30
2017,05,02,05,45,7.30
2017,05,02,05,46,7.30
2017,05,02,05,47,7.30
2017,05,02,05,48,7.30
2017,05,02,05,49,7.30
2017,05,02,05,50,7.30
2017,05,02,05,51,7.30
2017,05,02,05,52,7.30
2017,05,02,05,53,7.30
2017,05,02,05,54,7.30
2017,05,02,05,55,7.40
2017,05,02,05,56,7.40
2017,05,02,05,57,7.40
2017,05,02,05,58,7.40
2017,05,02,05,59,7.40
2017,05,02,06,00,7.40
2017,05,02,06,01,7.40
2017,05,02,06,02,7.40
2017,05,02,06,03,7.40
2017,05,02,06,04,7.40
2017,05,02,06,05,7.40
2017,05,02,06,06,7.50
2017,05,02,06,07,7.50
2017,05,02,06,08,7.50
2017,05,02,06,09,7.50
2017,05,02,06,10,7.50
2017,05,02,06,11,7.50
2017,05,02,06,12,7.50
2017,05,02,06,13,7.50
2017,05,02,06,14,7.50
2017,05,02,06,15,7.50
2017,05,02,06,16,7.50
2017,05,02,06,17,7.50
2017,05,02,06,18,7.50
2017,05,02,06,19,7.60
2017,05,02,06,20,7.60
2017,05,02,06,21,7.60
2017,05,02,06,22,7.60
2017,05,02,06,23,7.60
2017,05,02,06,24,7.60
2017,05,02,06,25,7.60
2017,05,02,06,26,7.60
2017,05,02,06,27,7.60
2017,05,02,06,28,7.60
2017,05,02,06,29,7.60
2017,05,02,06,30,7.60
2017,05,02,06,31,7.60
2017,05,02,06,32,7.70
2017,05,02,06,33,7.70
2017,05,02,06,34,7.70
2017,05,02,06,35,7.70
2017,05,02,06,36,7.70
2017,05,02,06,37,7.70
2017,05,02,06,38,7.70
2017,05,02,06,39,7.70
2017,05,02,06,40,7.70
2017,05,02,06,41,7.70
2017,05,02,06,42,7.70
2017,05,02,06,43,7.70
2017,05,02,06,44,7.70
2017,05,02,06,45,7.70
2017,05,02,06,46,7.70
2017,05,02,06,47,7.70
2017,05,02,06,48,7.70
2017,05,02,06,49,7.70
2017,05,02,06,50,7.70
2017,05,02,06,51,7.70
2017,05,02,06,52,7.70
2017,05,02,06,53,7.70
2017,05,02,06,54,7.80
2017,05,02,06,55,7.80
2017,05,02,06,56,7.80
2017,05,02,06,57,7.80
2017,05,02,06,58,7.80
2017,05,02,06,59,7.80
2017,05,02,07,00,7.80
2017,05,02,07,01,7.80
2017,05,02,07,02,7.80
2017,05,02,07,03,7.80
2017,05,02,07,04,7.80
2017,05,02,07,05,7.90
2017,05,02,07,06,7.90
2017,05,02,07,07,7.90
2017,05,02,07,08,7.90
2017,05,02,07,09,7.90
2017,05,02,07,10,8.00
2017,05,02,07,11,8.00
2017,05,02,07,12,8.00
2017,05,02,07,13,8.10
2017,05,02,07,14,8.10
2017,05,02,07,15,8.20
2017,05,02,07,16,8.20
2017,05,02,07,17,8.20
2017,05,02,07,18,8.30
2017,05,02,07,19,8.30
2017,05,02,07,20,8.40
2017,05,02,07,21,8.40
2017,05,02,07,22,8.40
2017,05,02,07,23,8.50
2017,05,02,07,24,8.50
2017,05,02,07,25,8.50
2017,05,02,07,26,8.50
2017,05,02,07,27,8.50
2017,05,02,07,28,8.50
2017,05,02,07,29,8.50
2017,05,02,07,30,8.60
2017,05,02,07,31,8.60
2017,05,02,07,32,8.60
2017,05,02,07,33,8.60
2017,05,02,07,34,8.60
2017,05,02,07,35,8.60
2017,05,02,07,36,8.60
2017,05,02,07,37,8.60
2017,05,02,07,38,8.60
2017,05,02,07,39,8.60
2017,05,02,07,40,8.60
2017,05,02,07,41,8.70
2017,05,02,07,42,8.70
2017,05,02,07,43,8.70
2017,05,02,07,44,8.70
2017,05,02,07,45,8.70
2017,05,02,07,46,8.70
2017,05,02,07,47,8.70
2017,05,02,07,48,8.80
2017,05,02,07,49,8.80
2017,05,02,07,50,8.80
2017,05,02,07,51,8.80
2017,05,02,07,52,8.80
2017,05,02,07,53,8.80
2017,05,02,07,54,8.80
2017,05,02,07,55,8.80
2017,05,02,07,56,8.90
2017,05,02,07,57,8.90
2017,05,02,07,58,9.00
2017,05,02,07,59,9.00
2017,05,02,08,00,9.10
2017,05,02,08,01,9.10
2017,05,02,08,02,9.10
2017,05,02,08,03,9.20
2017,05,02,08,04,9.20
2017,05,02,08,05,9.20
2017,05,02,08,06,9.30
2017,05,02,08,07,9.30
2017,05,02,08,08,9.30
2017,05,02,08,09,9.30
2017,05,02,08,10,9.40
2017,05,02,08,11,9.50
2017,05,02,08,12,9.60
2017,05,02,08,13,9.60
2017,05,02,08,14,9.70
2017,05,02,08,15,9.80
2017,05,02,08,16,9.80
2017,05,02,08,17,9.90
2017,05,02,08,18,9.90
2017,05,02,08,19,9.90
2017,05,02,08,20,9.90
2017,05,02,08,21,10.00
2017,05,02,08,22,10.00
2017,05,02,08,23,10.10
2017,05,02,08,24,10.10
2017,05,02,08,25,10.10
2017,05,02,08,26,10.10
2017,05,02,08,27,10.00
2017,05,02,08,28,10.00
2017,05,02,08,29,10.00
2017,05,02,08,30,10.10
2017,05,02,08,31,10.10
2017,05,02,08,32,10.10
2017,05,02,08,33,10.10
2017,05,02,08,34,10.10
2017,05,02,08,35,10.20
2017,05,02,08,36,10.20
2017,05,02,08,37,10.30
2017,05,02,08,38,10.30
2017,05,02,08,39,10.40
2017,05,02,08,40,10.40
2017,05,02,08,41,10.40
2017,05,02,08,42,10.40
2017,05,02,08,43,10.30
2017,05,02,08,44,10.30
2017,05,02,08,45,10.30
2017,05,02,08,46,10.30
2017,05,02,08,47,10.30
2017,05,02,08,48,10.20
2017,05,02,08,49,10.20
2017,05,02,08,50,10.10
2017,05,02,08,51,10.10
2017,05,02,08,52,10.10
2017,05,02,08,53,10.00
2017,05,02,08,54,10.00
2017,05,02,08,55,9.90
2017,05,02,08,56,9.90
2017,05,02,08,57,9.90
2017,05,02,08,58,10.00
2017,05,02,08,59,10.00
2017,05,02,09,00,10.00
2017,05,02,09,01,10.00
2017,05,02,09,02,10.10
2017,05,02,09,03,10.20
2017,05,02,09,04,10.20
2017,05,02,09,05,10.30
2017,05,02,09,06,10.30
2017,05,02,09,07,10.40
2017,05,02,09,08,10.40
2017,05,02,09,09,10.40
2017,05,02,09,10,10.40
2017,05,02,09,11,10.40
2017,05,02,09,12,10.50
2017,05,02,09,13,10.60
2017,05,02,09,14,10.60
2017,05,02,09,15,10.60
2017,05,02,09,16,10.60
2017,05,02,09,17,10.60
2017,05,02,09,18,10.60
2017,05,02,09,19,10.70
2017,05,02,09,20,10.70
2017,05,02,09,21,10.80
2017,05,02,09,22,10.80
2017,05,02,09,23,10.90
2017,05,02,09,24,11.00
2017,05,02,09,25,11.00
2017,05,02,09,26,11.10
2017,05,02,09,27,11.10
2017,05,02,09,28,11.10
2017,05,02,09,29,11.20
2017,05,02,09,30,11.20
2017,05,02,09,31,11.30
2017,05,02,09,32,11.40
2017,05,02,09,33,11.50
2017,05,02,09,34,11.60
2017,05,02,09,35,11.70
2017,05,02,09,36,11.60
2017,05,02,09,37,11.50
2017,05,02,09,38,11.40
2017,05,02,09,39,11.30
2017,05,02,09,40,11.30
2017,05,02,09,41,11.30
2017,05,02,09,42,11.30
2017,05,02,09,43,11.30
2017,05,02,09,44,11.30
2017,05,02,09,45,11.30
2017,05,02,09,46,11.30
2017,05,02,09,47,11.30
2017,05,02,09,48,11.40
2017,05,02,09,49,11.40
2017,05,02,09,50,11.50
2017,05,02,09,51,11.50
2017,05,02,09,52,11.70
2017,05,02,09,53,11.80
2017,05,02,09,54,11.90
2017,05,02,09,55,12.00
2017,05,02,09,56,12.10
2017,05,02,09,57,12.10
2017,05,02,09,58,12.10
2017,05,02,09,59,12.20
2017,05,02,10,00,12.20
2017,05,02,10,01,12.20
2017,05,02,10,02,12.20
2017,05,02,10,03,12.20
2017,05,02,10,04,12.20
2017,05,02,10,05,12.20
2017,05,02,10,06,12.20
2017,05,02,10,07,12.20
2017,05,02,10,08,12.20
2017,05,02,10,09,12.20
2017,05,02,10,10,12.20
2017,05,02,10,11,12.20
2017,05,02,10,12,12.10
2017,05,02,10,13,12.10
2017,05,02,10,14,12.10
2017,05,02,10,15,12.10
2017,05,02,10,16,12.20
2017,05,02,10,17,12.20
2017,05,02,10,18,12.20
2017,05,02,10,19,12.30
2017,05,02,10,20,12.40
2017,05,02,10,21,12.40
2017,05,02,10,22,12.40
2017,05,02,10,23,12.50
2017,05,02,10,24,12.50
2017,05,02,10,25,12.50
2017,05,02,10,26,12.40
2017,05,02,10,27,12.30
2017,05,02,10,28,12.30
2017,05,02,10,29,12.30
2017,05,02,10,30,12.40
2017,05,02,10,31,12.40
2017,05,02,10,32,12.50
2017,05,02,10,33,12.50
2017,05,02,10,34,12.60
2017,05,02,10,35,12.70
2017,05,02,10,36,12.70
2017,05,02,10,37,12.70
2017,05,02,10,38,12.70
2017,05,02,10,39,12.70
2017,05,02,10,40,12.60
2017,05,02,10,41,12.60
2017,05,02,10,42,12.60
2017,05,02,10,43,12.60
2017,05,02,10,44,12.70
2017,05,02,10,45,12.70
2017,05,02,10,46,12.70
2017,05,02,10,47,12.80
2017,05,02,10,48,12.80
2017,05,02,10,49,12.80
2017,05,02,10,50,12.70
2017,05,02,10,51,12.70
2017,05,02,10,52,12.70
2017,05,02,10,53,12.70
2017,05,02,10,54,12.70
2017,05,02,10,55,12.80
2017,05,02,10,56,12.80
2017,05,02,10,57,12.80
2017,05,02,10,58,12.90
2017,05,02,10,59,12.90
2017,05,02,11,00,12.90
2017,05,02,11,01,12.90
2017,05,02,11,02,12.90
2017,05,02,11,03,12.80
2017,05,02,11,04,12.70
2017,05,02,11,05,12.70
2017,05,02,11,06,12.70
2017,05,02,11,07,12.80
2017,05,02,11,08,12.80
2017,05,02,11,09,12.80
2017,05,02,11,10,12.70
2017,05,02,11,11,12.50
2017,05,02,11,12,12.40
2017,05,02,11,13,12.40
2017,05,02,11,14,12.40
2017,05,02,11,15,12.50
2017,05,02,11,16,12.60
2017,05,02,11,17,12.60
2017,05,02,11,18,12.70
2017,05,02,11,19,12.70
2017,05,02,11,20,12.80
2017,05,02,11,21,12.80
2017,05,02,11,22,12.80
2017,05,02,11,23,12.80
2017,05,02,11,24,12.80
2017,05,02,11,25,12.80
2017,05,02,11,26,12.90
2017,05,02,11,27,12.90
2017,05,02,11,28,13.00
2017,05,02,11,29,13.20
2017,05,02,11,30,13.30
2017,05,02,11,31,13.30
2017,05,02,11,32,13.40
2017,05,02,11,33,13.40
2017,05,02,11,34,13.30
2017,05,02,11,35,13.20
2017,05,02,11,36,13.10
2017,05,02,11,37,13.10
2017,05,02,11,38,13.00
2017,05,02,11,39,13.00
2017,05,02,11,40,13.00
2017,05,02,11,41,13.00
2017,05,02,11,42,12.80
2017,05,02,11,43,12.70
2017,05,02,11,44,12.60
2017,05,02,11,45,12.50
2017,05,02,11,46,12.40
2017,05,02,11,47,12.30
2017,05,02,11,48,12.30
2017,05,02,11,49,12.30
2017,05,02,11,50,12.30
2017,05,02,11,51,12.30
2017,05,02,11,52,12.30
2017,05,02,11,53,12.40
2017,05,02,11,54,12.40
2017,05,02,11,55,12.50
2017,05,02,11,56,12.60
2017,05,02,11,57,12.70
2017,05,02,11,58,12.80
2017,05,02,11,59,12.80
2017,05,02,12,00,12.90
2017,05,02,12,01,12.90
2017,05,02,12,02,12.90
2017,05,02,12,03,12.90
2017,05,02,12,04,12.90
2017,05,02,12,05,12.90
2017,05,02,12,06,12.80
2017,05,02,12,07,12.80
2017,05,02,12,08,12.80
2017,05,02,12,09,12.80
2017,05,02,12,10,12.80
2017,05,02,12,11,12.80
2017,05,02,12,12,12.90
2017,05,02,12,13,12.80
2017,05,02,12,14,12.80
2017,05,02,12,15,12.80
2017,05,02,12,16,12.80
2017,05,02,12,17,12.80
2017,05,02,12,18,12.80
2017,05,02,12,19,12.80
2017,05,02,12,20,12.80
2017,05,02,12,21,12.90
2017,05,02,12,22,12.90
2017,05,02,12,23,12.90
2017,05,02,12,24,13.00
2017,05,02,12,25,13.10
2017,05,02,12,26,13.10
2017,05,02,12,27,13.10
2017,05,02,12,28,13.10
2017,05,02,12,29,13.10
2017,05,02,12,30,13.20
2017,05,02,12,31,13.20
2017,05,02,12,32,13.30
2017,05,02,12,33,13.30
2017,05,02,12,34,13.40
2017,05,02,12,35,13.50
2017,05,02,12,36,13.50
2017,05,02,12,37,13.50
2017,05,02,12,38,13.40
2017,05,02,12,39,13.30
2017,05,02,12,40,13.20
2017,05,02,12,41,13.10
2017,05,02,12,42,13.00
2017,05,02,12,43,12.90
2017,05,02,12,44,12.80
2017,05,02,12,45,12.80
2017,05,02,12,46,12.80
2017,05,02,12,47,12.90
2017,05,02,12,48,13.00
2017,05,02,12,49,13.10
2017,05,02,12,50,13.20
2017,05,02,12,51,13.20
2017,05,02,12,52,13.20
2017,05,02,12,53,13.10
2017,05,02,12,54,13.10
2017,05,02,12,55,13.10
2017,05,02,12,56,13.20
2017,05,02,12,57,13.30
2017,05,02,12,58,13.30
2017,05,02,12,59,13.30
2017,05,02,13,00,13.30
2017,05,02,13,01,13.30
2017,05,02,13,02,13.40
2017,05,02,13,03,13.40
2017,05,02,13,04,13.50
2017,05,02,13,05,13.50
2017,05,02,13,06,13.60
2017,05,02,13,07,13.50
2017,05,02,13,08,13.50
2017,05,02,13,09,13.50
2017,05,02,13,10,13.40
2017,05,02,13,11,13.40
2017,05,02,13,12,13.30
2017,05,02,13,13,13.10
2017,05,02,13,14,13.10
2017,05,02,13,15,13.00
2017,05,02,13,16,12.90
2017,05,02,13,17,12.70
2017,05,02,13,18,12.60
2017,05,02,13,19,12.50
2017,05,02,13,20,12.40
2017,05,02,13,21,12.30
2017,05,02,13,22,12.30
2017,05,02,13,23,12.20
2017,05,02,13,24,12.20
2017,05,02,13,25,12.30
2017,05,02,13,26,12.30
2017,05,02,13,27,12.30
2017,05,02,13,28,12.40
2017,05,02,13,29,12.40
2017,05,02,13,30,12.40
2017,05,02,13,31,12.40
2017,05,02,13,32,12.40
2017,05,02,13,33,12.30
2017,05,02,13,34,12.30
2017,05,02,13,35,12.30
2017,05,02,13,36,12.30
2017,05,02,13,37,12.20
2017,05,02,13,38,12.20
2017,05,02,13,39,12.20
2017,05,02,13,40,12.20
2017,05,02,13,41,12.20
2017,05,02,13,42,12.20
2017,05,02,13,43,12.20
2017,05,02,13,44,12.20
2017,05,02,13,45,12.20
2017,05,02,13,46,12.30
2017,05,02,13,47,12.30
2017,05,02,13,48,12.40
2017,05,02,13,49,12.40
2017,05,02,13,50,12.40
2017,05,02,13,51,12.40
2017,05,02,13,52,12.40
2017,05,02,13,53,12.30
2017,05,02,13,54,12.30
2017,05,02,13,55,12.30
2017,05,02,13,56,12.20
2017,05,02,13,57,12.20
2017,05,02,13,58,12.20
2017,05,02,13,59,12.30
2017,05,02,14,00,12.30
2017,05,02,14,01,12.30
2017,05,02,14,02,12.30
2017,05,02,14,03,12.20
2017,05,02,14,04,12.20
2017,05,02,14,05,12.20
2017,05,02,14,06,12.20
2017,05,02,14,07,12.20
2017,05,02,14,08,12.20
2017,05,02,14,09,12.20
2017,05,02,14,10,12.20
2017,05,02,14,11,12.30
2017,05,02,14,12,12.30
2017,05,02,14,13,12.30
2017,05,02,14,14,12.40
2017,05,02,14,15,12.40
2017,05,02,14,16,12.40
2017,05,02,14,17,12.40
2017,05,02,14,18,12.50
2017,05,02,14,19,12.50
2017,05,02,14,20,12.60
2017,05,02,14,21,12.70
2017,05,02,14,22,12.70
2017,05,02,14,23,12.80
2017,05,02,14,24,12.80
2017,05,02,14,25,12.90
2017,05,02,14,26,12.90
2017,05,02,14,27,12.90
2017,05,02,14,28,12.80
2017,05,02,14,29,12.70
2017,05,02,14,30,12.70
2017,05,02,14,31,12.70
2017,05,02,14,32,12.60
2017,05,02,14,33,12.60
2017,05,02,14,34,12.60
2017,05,02,14,35,12.60
2017,05,02,14,36,12.60
2017,05,02,14,37,12.60
2017,05,02,14,38,12.60
2017,05,02,14,39,12.60
2017,05,02,14,40,12.70
2017,05,02,14,41,12.70
2017,05,02,14,42,12.70
2017,05,02,14,43,12.70
2017,05,02,14,44,12.70
2017,05,02,14,45,12.70
2017,05,02,14,46,12.60
2017,05,02,14,47,12.60
2017,05,02,14,48,12.70
2017,05,02,14,49,12.70
2017,05,02,14,50,12.70
2017,05,02,14,51,12.80
2017,05,02,14,52,12.80
2017,05,02,14,53,12.80
2017,05,02,14,54,12.80
2017,05,02,14,55,12.80
2017,05,02,14,56,12.80
2017,05,02,14,57,12.80
2017,05,02,14,58,12.80
2017,05,02,14,59,12.80
2017,05,02,15,00,12.90
2017,05,02,15,01,12.90
2017,05,02,15,02,12.90
2017,05,02,15,03,13.00
2017,05,02,15,04,13.00
2017,05,02,15,05,12.90
2017,05,02,15,06,12.90
2017,05,02,15,07,12.80
2017,05,02,15,08,12.80
2017,05,02,15,09,12.80
2017,05,02,15,10,12.80
2017,05,02,15,11,12.80
2017,05,02,15,12,12.80
2017,05,02,15,13,12.80
2017,05,02,15,14,12.80
2017,05,02,15,15,12.80
2017,05,02,15,16,12.80
2017,05,02,15,17,12.80
2017,05,02,15,18,12.80
2017,05,02,15,19,12.80
2017,05,02,15,20,12.80
2017,05,02,15,21,12.80
2017,05,02,15,22,12.80
2017,05,02,15,23,12.80
2017,05,02,15,24,12.90
2017,05,02,15,25,12.90
2017,05,02,15,26,12.90
2017,05,02,15,27,13.00
2017,05,02,15,28,13.00
2017,05,02,15,29,13.00
2017,05,02,15,30,13.10
2017,05,02,15,31,13.10
2017,05,02,15,32,13.10
2017,05,02,15,33,13.10
2017,05,02,15,34,13.10
2017,05,02,15,35,13.20
2017,05,02,15,36,13.20
2017,05,02,15,37,13.20
2017,05,02,15,38,13.20
2017,05,02,15,39,13.20
2017,05,02,15,40,13.20
2017,05,02,15,41,13.20
2017,05,02,15,42,13.20
2017,05,02,15,43,13.20
2017,05,02,15,44,13.20
2017,05,02,15,45,13.20
2017,05,02,15,46,13.20
2017,05,02,15,47,13.20
2017,05,02,15,48,13.20
2017,05,02,15,49,13.20
2017,05,02,15,50,13.20
2017,05,02,15,51,13.20
2017,05,02,15,52,13.20
2017,05,02,15,53,13.30
2017,05,02,15,54,13.30
2017,05,02,15,55,13.30
2017,05,02,15,56,13.30
2017,05,02,15,57,13.30
2017,05,02,15,58,13.30
2017,05,02,15,59,13.30
2017,05,02,16,00,13.30
2017,05,02,16,01,13.30
2017,05,02,16,02,13.30
2017,05,02,16,03,13.30
2017,05,02,16,04,13.30
2017,05,02,16,05,13.40
2017,05,02,16,06,13.40
2017,05,02,16,07,13.40
2017,05,02,16,08,13.40
2017,05,02,16,09,13.40
2017,05,02,16,10,13.40
2017,05,02,16,11,13.40
2017,05,02,16,12,13.40
2017,05,02,16,13,13.40
2017,05,02,16,14,13.40
2017,05,02,16,15,13.40
2017,05,02,16,16,13.40
2017,05,02,16,17,13.40
2017,05,02,16,18,13.40
2017,05,02,16,19,13.40
2017,05,02,16,20,13.40
2017,05,02,16,21,13.40
2017,05,02,16,22,13.50
2017,05,02,16,23,13.40
2017,05,02,16,24,13.40
2017,05,02,16,25,13.40
2017,05,02,16,26,13.40
2017,05,02,16,27,13.40
2017,05,02,16,28,13.30
2017,05,02,16,29,13.30
2017,05,02,16,30,13.30
2017,05,02,16,31,13.30
2017,05,02,16,32,13.20
2017,05,02,16,33,13.20
2017,05,02,16,34,13.20
2017,05,02,16,35,13.20
2017,05,02,16,36,13.20
2017,05,02,16,37,13.20
2017,05,02,16,38,13.20
2017,05,02,16,39,13.30
2017,05,02,16,40,13.20
2017,05,02,16,41,13.20
2017,05,02,16,42,13.20
2017,05,02,16,43,13.20
2017,05,02,16,44,13.20
2017,05,02,16,45,13.10
2017,05,02,16,46,13.10
2017,05,02,16,47,13.10
2017,05,02,16,48,13.10
2017,05,02,16,49,13.10
2017,05,02,16,50,13.10
2017,05,02,16,51,13.10
2017,05,02,16,52,13.10
2017,05,02,16,53,13.20
2017,05,02,16,54,13.20
2017,05,02,16,55,13.20
2017,05,02,16,56,13.20
2017,05,02,16,57,13.20
2017,05,02,16,58,13.20
2017,05,02,16,59,13.20
2017,05,02,17,00,13.10
2017,05,02,17,01,13.10
2017,05,02,17,02,13.10
2017,05,02,17,03,13.10
2017,05,02,17,04,13.10
2017,05,02,17,05,13.10
2017,05,02,17,06,13.10
2017,05,02,17,07,13.10
2017,05,02,17,08,13.10
2017,05,02,17,09,13.10
2017,05,02,17,10,13.10
2017,05,02,17,11,13.10
2017,05,02,17,12,13.10
2017,05,02,17,13,13.10
2017,05,02,17,14,13.10
2017,05,02,17,15,13.10
2017,05,02,17,16,13.10
2017,05,02,17,17,13.10
2017,05,02,17,18,13.10
2017,05,02,17,19,13.10
2017,05,02,17,20,13.10
2017,05,02,17,21,13.20
2017,05,02,17,22,13.20
2017,05,02,17,23,13.20
2017,05,02,17,24,13.20
2017,05,02,17,25,13.20
2017,05,02,17,26,13.20
2017,05,02,17,27,13.20
2017,05,02,17,28,13.30
2017,05,02,17,29,13.30
2017,05,02,17,30,13.30
2017,05,02,17,31,13.20
2017,05,02,17,32,13.20
2017,05,02,17,33,13.20
2017,05,02,17,34,13.20
2017,05,02,17,35,13.20
2017,05,02,17,36,13.20
2017,05,02,17,37,13.20
2017,05,02,17,38,13.20
2017,05,02,17,39,13.20
2017,05,02,17,40,13.20
2017,05,02,17,41,13.30
2017,05,02,17,42,13.30
2017,05,02,17,43,13.30
2017,05,02,17,44,13.30